N3TTT-13 Weather Reports


time (UTC)temp
F
wind
direction
speed
knots
gust
knots
rain 1hr
in
rain 24hr
in
rain mn
in
humidity
%
barometer
mb
20260507040926 64 281 0.0 0.0 0.00 0.00 0.00 89 1009.3
20260507040421 64 331 0.0 0.0 0.00 0.00 0.00 89 1009.4
20260507035917 64 267 0.0 0.0 0.00 0.00 0.00 89 1009.2
20260507035414 64 267 0.0 0.0 0.00 0.00 0.00 89 1008.9
20260507034911 64 234 0.0 0.0 0.00 0.00 0.00 89 1009.0
20260507034407 63 257 0.0 0.0 0.00 0.00 0.00 90 1009.0
20260507033905 63 266 0.0 0.0 0.00 0.00 0.00 90 1009.5
20260507033403 63 261 0.0 0.0 0.00 0.00 0.00 90 1009.3
20260507032900 63 261 0.0 0.0 0.00 0.00 0.00 90 1009.2
20260507032357 63 276 0.0 0.0 0.00 0.00 0.00 90 1008.9
20260507031853 63 259 0.0 0.0 0.00 0.00 0.00 90 1009.1
20260507031350 63 258 0.0 0.0 0.00 0.00 0.00 90 1009.2
20260507030846 63 258 0.0 0.0 0.00 0.00 0.00 90 1009.1
20260507030344 63 259 0.0 0.0 0.00 0.00 0.00 90 1009.1
20260507025840 63 258 0.0 0.0 0.00 0.00 0.00 90 1009.0
20260507025338 63 258 0.0 0.0 0.00 0.00 0.00 90 1009.0
20260507024836 63 258 0.0 0.0 0.00 0.00 0.00 90 1008.8
20260507024333 63 259 0.0 0.0 0.00 0.00 0.00 90 1009.0
20260507023828 63 258 0.0 0.0 0.00 0.00 0.00 90 1008.8
20260507023325 63 258 0.0 0.0 0.00 0.00 0.00 90 1009.1
20260507022823 63 258 0.0 0.0 0.00 0.00 0.00 90 1009.3
20260507022319 63 259 0.0 0.0 0.00 0.00 0.00 89 1009.1
20260507021815 63 259 0.0 0.0 0.00 0.00 0.00 89 1009.1
20260507021311 63 261 0.0 0.0 0.00 0.00 0.00 89 1009.3
20260507020809 63 258 0.0 0.0 0.00 0.00 0.00 89 1009.5
20260507020305 63 258 0.0 0.0 0.00 0.00 0.00 89 1009.6
20260507015803 63 258 0.0 0.0 0.00 0.00 0.00 89 1009.9
20260507015300 63 253 0.0 0.0 0.00 0.00 0.00 89 1010.1
20260507014757 63 240 0.0 0.0 0.00 0.00 0.00 89 1009.9
20260507014253 63 240 0.0 0.0 0.00 0.00 0.00 89 1009.9
20260507013749 63 240 0.0 0.0 0.00 0.00 0.00 88 1010.0
20260507013247 64 240 0.0 0.0 0.00 0.00 0.00 88 1009.9
20260507012744 64 240 0.0 0.0 0.00 0.00 0.00 87 1009.7
20260507012245 64 239 0.0 0.0 0.00 0.00 0.00 87 1009.5
20260507011743 64 244 0.0 0.0 0.00 0.00 0.00 87 1009.6
20260507011239 64 242 0.0 0.0 0.00 0.00 0.00 87 1009.7
20260507010738 65 240 0.0 0.0 0.00 0.00 0.00 87 1009.5
20260507010235 65 240 0.0 0.0 0.00 0.00 0.00 86 1009.6
20260507005733 65 235 0.0 0.0 0.00 0.00 0.00 86 1009.7
20260507005229 65 253 0.0 0.0 0.00 0.00 0.00 86 1009.7
20260507004725 65 254 0.0 0.0 0.00 0.00 0.00 86 1009.5
20260507004223 65 241 0.0 0.0 0.00 0.00 0.00 85 1009.5
20260507003719 66 252 0.0 0.0 0.00 0.00 0.00 85 1009.7
20260507003214 66 254 0.0 0.0 0.00 0.00 0.00 85 1009.8
20260507002711 66 252 0.0 0.0 0.00 0.00 0.00 85 1009.8
20260507002207 66 227 0.0 0.0 0.00 0.00 0.00 85 1009.6
20260507001704 66 262 0.0 0.0 0.00 0.00 0.00 84 1009.7
20260507001201 66 257 0.0 0.0 0.00 0.00 0.00 84 1009.4
20260507000657 67 238 0.9 0.9 0.00 0.00 0.00 84 1009.1
20260507000153 67 163 1.7 1.7 0.00 0.00 0.00 83 1009.0
20260506235650 67 266 0.0 0.9 0.00 0.00 0.00 83 1009.0
20260506235145 67 229 0.9 0.9 0.00 0.00 0.00 83 1008.9
20260506234643 67 307 0.0 0.0 0.00 0.00 0.00 83 1008.8
20260506234140 68 239 0.0 0.0 0.00 0.00 0.00 82 1009.0
20260506233637 68 188 0.9 0.9 0.00 0.00 0.00 82 1009.0
20260506233134 68 261 0.9 0.9 0.00 0.00 0.00 82 1009.0
20260506232630 68 233 0.0 0.9 0.00 0.00 0.00 82 1009.1
20260506232125 68 88 0.0 0.9 0.00 0.00 0.00 81 1009.0
20260506231623 68 253 0.0 0.0 0.00 0.00 0.00 81 1009.1
20260506231121 69 184 1.7 2.6 0.00 0.00 0.00 81 1008.8
20260506230618 69 240 0.0 0.9 0.00 0.00 0.00 81 1009.2
20260506230115 69 272 0.9 1.7 0.00 0.00 0.00 81 1009.1
20260506225611 69 268 0.0 0.9 0.00 0.00 0.00 81 1009.3
20260506225108 69 130 1.7 1.7 0.00 0.00 0.00 81 1009.1
20260506224605 69 253 0.9 0.9 0.00 0.00 0.00 81 1009.0
20260506224101 69 268 2.6 2.6 0.00 0.00 0.00 80 1009.2
20260506223557 69 221 0.9 0.9 0.00 0.00 0.00 81 1009.0
20260506223053 69 141 0.9 1.7 0.00 0.00 0.00 80 1009.0
20260506222550 69 165 0.9 1.7 0.00 0.00 0.00 80 1008.8
20260506222047 69 252 0.9 0.9 0.00 0.00 0.00 79 1009.0
20260506221544 69 304 0.9 1.7 0.00 0.00 0.00 80 1009.0
20260506221042 69 273 0.9 0.9 0.00 0.00 0.00 79 1009.1
20260506220538 69 274 1.7 2.6 0.00 0.00 0.00 79 1008.9
20260506220034 70 248 1.7 1.7 0.00 0.00 0.00 79 1008.9
20260506215531 70 278 0.0 0.9 0.00 0.00 0.00 79 1008.7
20260506215026 70 208 2.6 5.2 0.00 0.00 0.00 79 1008.8
20260506214524 70 212 0.9 0.9 0.00 0.00 0.00 79 1008.8
20260506214021 70 251 0.9 0.9 0.00 0.00 0.00 79 1008.8
20260506213519 70 5 0.9 1.7 0.00 0.00 0.00 79 1009.0
20260506213016 70 244 0.9 0.9 0.00 0.00 0.00 79 1008.6
20260506212512 70 255 1.7 1.7 0.00 0.00 0.00 78 1008.7
20260506212007 70 298 3.5 4.3 0.00 0.00 0.00 79 1008.6
20260506211503 70 229 1.7 1.7 0.00 0.00 0.00 78 1008.8
20260506211001 70 213 0.9 0.9 0.00 0.00 0.00 78 1008.4
20260506210457 70 261 0.9 0.9 0.00 0.00 0.00 78 1008.4
20260506205954 70 357 1.7 1.7 0.00 0.00 0.00 78 1008.6
20260506205450 71 268 2.6 2.6 0.00 0.00 0.00 77 1008.6
20260506204946 70 249 0.9 0.9 0.00 0.00 0.00 77 1008.2
20260506204444 70 232 1.7 2.6 0.00 0.00 0.00 78 1008.3
20260506203941 71 262 0.9 0.9 0.00 0.00 0.00 77 1008.4
20260506203438 71 234 0.9 0.9 0.00 0.00 0.00 77 1008.3
20260506202935 71 208 2.6 4.3 0.00 0.00 0.00 77 1008.2
20260506202432 70 162 1.7 1.7 0.00 0.00 0.00 77 1008.1
20260506201929 70 223 4.3 8.7 0.00 0.00 0.00 77 1008.2
20260506201426 71 239 2.6 2.6 0.00 0.00 0.00 77 1008.3
20260506200923 70 224 1.7 1.7 0.00 0.00 0.00 77 1008.2
20260506200419 70 278 2.6 4.3 0.00 0.00 0.00 77 1008.2
20260506195916 70 278 0.9 0.9 0.00 0.00 0.00 78 1008.4
20260506195413 70 258 1.7 1.7 0.00 0.00 0.00 78 1008.4
20260506194909 70 240 2.6 2.6 0.00 0.00 0.00 76 1008.6
20260506194406 70 153 2.6 2.6 0.00 0.00 0.00 77 1008.5
20260506193903 70 247 0.9 1.7 0.00 0.00 0.00 78 1008.6
20260506193400 70 83 0.9 1.7 0.00 0.00 0.00 77 1008.6
20260506192856 70 218 4.3 7.8 0.00 0.00 0.00 77 1008.7
20260506192354 70 281 0.0 0.9 0.00 0.00 0.00 77 1008.6
20260506191851 70 342 1.7 2.6 0.00 0.00 0.00 77 1008.8
20260506191347 70 258 0.9 2.6 0.00 0.00 0.00 77 1008.6
20260506190844 70 192 1.7 1.7 0.00 0.00 0.00 77 1009.0
20260506190340 70 136 2.6 2.6 0.00 0.00 0.00 77 1008.9
20260506185837 70 137 2.6 2.6 0.00 0.00 0.00 77 1008.9
20260506185334 70 215 1.7 1.7 0.00 0.00 0.00 78 1008.9
20260506184831 70 224 0.9 0.9 0.00 0.00 0.00 77 1009.3
20260506184328 69 255 2.6 2.6 0.00 0.00 0.00 78 1008.9
20260506183826 68 258 3.5 5.2 0.00 0.00 0.00 78 1009.2
20260506183321 69 165 0.9 0.9 0.00 0.00 0.00 79 1009.3
20260506182819 69 142 2.6 4.3 0.00 0.00 0.00 78 1009.3
20260506182315 69 225 3.5 5.2 0.00 0.00 0.00 78 1009.3
20260506181813 68 169 0.9 2.6 0.00 0.00 0.00 78 1009.1
20260506181311 68 187 6.1 7.8 0.00 0.00 0.00 78 1009.2
20260506180808 68 200 0.9 1.7 0.00 0.00 0.00 79 1009.4
20260506180303 68 217 5.2 7.8 0.00 0.00 0.00 78 1009.5
20260506175800 68 303 2.6 4.3 0.00 0.00 0.00 80 1009.7
20260506175257 67 273 2.6 4.3 0.00 0.00 0.00 80 1009.7
20260506174754 68 170 5.2 7.8 0.00 0.00 0.00 80 1009.7
20260506174252 68 279 0.9 0.9 0.00 0.00 0.00 81 1009.5
20260506173749 67 272 1.7 2.6 0.00 0.00 0.00 82 1009.4
20260506173246 67 164 5.2 6.1 0.00 0.00 0.00 82 1009.7
20260506172742 66 180 4.3 7.0 0.00 0.00 0.00 84 1009.7
20260506172239 66 261 0.9 0.9 0.00 0.00 0.00 84 1009.8
20260506171737 66 180 0.9 1.7 0.00 0.00 0.00 85 1009.7
20260506171234 65 249 0.9 0.9 0.00 0.00 0.00 86 1009.7
20260506170731 64 246 1.7 2.6 0.00 0.00 0.00 87 1009.7
20260506170228 64 262 2.6 2.6 0.00 0.00 0.00 87 1010.0
20260506165726 64 245 0.9 0.9 0.00 0.00 0.00 89 1010.1
20260506165223 64 226 0.9 0.9 0.00 0.00 0.00 88 1010.1
20260506164720 64 244 0.9 0.9 0.00 0.00 0.00 88 1010.2
20260506164217 64 201 0.9 0.9 0.00 0.00 0.00 89 1010.1
20260506163714 64 310 1.7 2.6 0.00 0.00 0.00 89 1010.1
20260506163209 64 224 1.7 2.6 0.00 0.00 0.00 89 1010.0
20260506162705 64 286 0.9 0.9 0.00 0.00 0.00 89 1010.1
20260506162203 64 208 0.9 1.7 0.00 0.00 0.00 88 1010.2
20260506161700 64 259 0.9 1.7 0.00 0.00 0.00 87 1010.2
20260506161156 64 241 0.9 0.9 0.00 0.00 0.00 88 1010.5
20260506160654 64 202 2.6 4.3 0.00 0.00 0.00 87 1011.0
20260506160151 65 184 2.6 7.0 0.00 0.00 0.00 86 1011.0
20260506155649 66 126 0.9 0.9 0.00 0.00 0.00 84 1011.2
20260506155146 67 220 0.9 0.9 0.00 0.00 0.00 79 1011.2
20260506153248 68 268 1.7 2.6 0.00 0.00 0.00 79 1011.3
20260506152745 68 261 0.9 0.9 0.00 0.00 0.00 77 1011.0
20260506152242 68 215 0.9 1.7 0.00 0.00 0.00 78 1011.3
20260506151741 68 209 1.7 1.7 0.00 0.00 0.00 77 1011.1
20260506151237 68 241 0.9 0.9 0.00 0.00 0.00 77 1011.3
20260506150734 68 286 0.9 1.7 0.00 0.00 0.00 76 1011.1
20260506150231 68 268 2.6 2.6 0.00 0.00 0.00 76 1011.4
20260506145728 69 296 2.6 2.6 0.00 0.00 0.00 74 1011.0
20260506145224 70 234 0.9 1.7 0.00 0.00 0.00 71 1011.2
20260506144722 70 39 0.9 1.7 0.00 0.00 0.00 70 1011.0
20260506144219 71 101 0.0 0.9 0.00 0.00 0.00 69 1011.0
20260506143716 71 261 0.0 0.9 0.00 0.00 0.00 70 1011.2
20260506143214 71 89 1.7 1.7 0.00 0.00 0.00 69 1011.3
20260506142712 72 263 1.7 2.6 0.00 0.00 0.00 67 1011.2
20260506142210 72 255 2.6 2.6 0.00 0.00 0.00 67 1011.1
20260506141708 71 249 0.0 0.9 0.00 0.00 0.00 69 1011.1
20260506141206 71 186 1.7 1.7 0.00 0.00 0.00 68 1011.1
20260506140703 70 257 0.9 1.7 0.00 0.00 0.00 69 1011.2
20260506140200 70 185 3.5 4.3 0.00 0.00 0.00 69 1011.2
20260506135657 70 204 0.9 0.9 0.00 0.00 0.00 69 1011.1
20260506135153 70 222 0.0 0.9 0.00 0.00 0.00 69 1011.1
20260506134650 71 227 4.3 6.1 0.00 0.00 0.00 67 1010.9
20260506134146 70 279 0.9 0.9 0.00 0.00 0.00 69 1010.8
20260506133643 69 249 2.6 2.6 0.00 0.00 0.00 69 1010.9
20260506133140 69 329 1.7 1.7 0.00 0.00 0.00 70 1011.3
20260506132637 69 204 0.9 1.7 0.00 0.00 0.00 70 1011.2
20260506132134 70 271 0.0 0.0 0.00 0.00 0.00 70 1011.0
20260506131632 70 266 1.7 2.6 0.00 0.00 0.00 69 1011.0
20260506131128 69 341 0.9 0.9 0.00 0.00 0.00 70 1011.0
20260506130625 69 189 1.7 1.7 0.00 0.00 0.00 70 1011.1
20260506130122 69 183 2.6 2.6 0.00 0.00 0.00 69 1011.1
20260506125620 68 298 2.6 2.6 0.00 0.00 0.00 70 1011.1
20260506125118 68 164 2.6 4.3 0.00 0.00 0.00 70 1011.4
20260506124615 68 253 1.7 2.6 0.00 0.00 0.00 71 1011.1
20260506124113 68 306 0.9 0.9 0.00 0.00 0.00 71 1011.4
20260506123610 68 126 2.6 5.2 0.00 0.00 0.00 71 1011.4
20260506123109 68 280 1.7 1.7 0.00 0.00 0.00 71 1011.4
20260506122605 67 272 1.7 2.6 0.00 0.00 0.00 71 1011.4
20260506122103 67 253 0.9 0.9 0.00 0.00 0.00 72 1011.3
20260506121601 67 240 2.6 5.2 0.00 0.00 0.00 72 1011.5
20260506121056 67 136 6.1 7.0 0.00 0.00 0.00 71 1011.7
20260506120555 68 251 0.9 0.9 0.00 0.00 0.00 71 1011.4
20260506120051 67 184 1.7 2.6 0.00 0.00 0.00 72 1011.4
20260506115549 66 188 3.5 5.2 0.00 0.00 0.00 73 1011.3
20260506115048 66 124 2.6 4.3 0.00 0.00 0.00 74 1011.4
20260506114545 66 148 2.6 4.3 0.00 0.00 0.00 74 1011.3
20260506114043 65 231 1.7 1.7 0.00 0.00 0.00 75 1011.1
20260506113541 65 173 1.7 1.7 0.00 0.00 0.00 75 1011.0
20260506113038 65 261 0.9 0.9 0.00 0.00 0.00 75 1011.5
20260506112534 65 124 1.7 1.7 0.00 0.00 0.00 76 1011.3
20260506112032 65 222 1.7 2.6 0.00 0.00 0.00 75 1011.0
20260506111530 66 303 2.6 4.3 0.00 0.00 0.00 74 1011.1
20260506111027 67 200 0.9 0.9 0.00 0.00 0.00 74 1011.0
20260506110524 66 185 1.7 4.3 0.00 0.00 0.00 74 1011.3
20260506110021 66 237 0.9 0.9 0.00 0.00 0.00 75 1011.0
20260506105517 65 306 0.9 2.6 0.00 0.00 0.00 75 1011.2
20260506105015 65 248 0.0 0.0 0.00 0.00 0.00 76 1010.9
20260506104513 65 205 4.3 6.1 0.00 0.00 0.00 76 1010.9
20260506104010 64 207 1.7 1.7 0.00 0.00 0.00 77 1011.1
20260506103507 64 240 0.0 0.9 0.00 0.00 0.00 78 1011.2
20260506103004 64 206 2.6 2.6 0.00 0.00 0.00 78 1011.3
20260506102503 64 128 1.7 2.6 0.00 0.00 0.00 78 1011.2
20260506101959 63 231 1.7 1.7 0.00 0.00 0.00 79 1011.2
20260506101455 64 237 0.0 0.9 0.00 0.00 0.00 79 1011.3
20260506100953 64 230 1.7 1.7 0.00 0.00 0.00 79 1011.2
20260506100451 64 195 0.9 1.7 0.00 0.00 0.00 79 1011.2
20260506095949 64 201 1.7 1.7 0.00 0.00 0.00 79 1011.1
20260506095447 64 293 1.7 1.7 0.00 0.00 0.00 79 1011.2
20260506094943 64 235 1.7 1.7 0.00 0.00 0.00 79 1011.1
20260506094442 64 199 1.7 1.7 0.00 0.00 0.00 79 1011.1
20260506093939 64 216 2.6 2.6 0.00 0.00 0.00 79 1011.0
20260506093437 64 252 0.0 0.9 0.00 0.00 0.00 79 1010.9
20260506092934 64 149 4.3 7.0 0.00 0.00 0.00 79 1011.0
20260506092432 64 201 0.9 0.9 0.00 0.00 0.00 79 1010.8
20260506091929 64 293 0.9 1.7 0.00 0.00 0.00 78 1010.9
20260506091427 64 186 1.7 2.6 0.00 0.00 0.00 78 1010.7
20260506090924 64 299 1.7 2.6 0.00 0.00 0.00 78 1011.0
20260506090421 64 275 2.6 5.2 0.00 0.00 0.00 78 1010.8
20260506085918 64 234 1.7 1.7 0.00 0.00 0.00 79 1010.9
20260506085415 64 200 5.2 13.0 0.00 0.00 0.00 79 1010.9
20260506084911 64 199 3.5 6.1 0.00 0.00 0.00 79 1011.0
20260506084408 64 280 4.3 6.1 0.00 0.00 0.00 79 1011.0
20260506083904 64 124 2.6 2.6 0.00 0.00 0.00 80 1011.1
20260506083401 64 193 0.9 0.9 0.00 0.00 0.00 80 1011.1
20260506082859 65 240 0.9 1.7 0.00 0.00 0.00 80 1010.9
20260506082355 65 209 1.7 2.6 0.00 0.00 0.00 80 1011.2
20260506081851 64 239 1.7 1.7 0.00 0.00 0.00 80 1011.4
20260506081350 65 285 0.0 0.9 0.00 0.00 0.00 80 1011.4
20260506080847 65 267 1.7 1.7 0.00 0.00 0.00 80 1011.2
20260506080343 65 352 2.6 5.2 0.00 0.00 0.00 80 1011.3
20260506073328 66 182 2.6 2.6 0.00 0.00 0.00 79 1011.4
20260506072824 66 207 5.2 8.7 0.00 0.00 0.00 79 1011.3
20260506072322 66 255 2.6 2.6 0.00 0.00 0.00 79 1011.3
20260506071820 66 274 1.7 1.7 0.00 0.00 0.00 79 1011.2
20260506071317 66 245 2.6 4.3 0.00 0.00 0.00 79 1011.2
20260506070814 66 257 3.5 6.1 0.00 0.00 0.00 78 1011.2
20260506070311 66 158 2.6 5.2 0.00 0.00 0.00 79 1011.2
20260506062248 67 173 0.9 1.7 0.00 0.00 0.00 78 1011.6
20260506061744 67 214 1.7 2.6 0.00 0.00 0.00 78 1011.6
20260506061241 67 264 1.7 2.6 0.00 0.00 0.00 78 1011.7
20260506060740 67 201 2.6 5.2 0.00 0.00 0.00 77 1011.4
20260506060237 67 227 0.9 1.7 0.00 0.00 0.00 78 1011.6
20260506051209 69 274 1.7 1.7 0.00 0.00 0.00 75 1011.7
20260506050707 69 197 0.0 0.9 0.00 0.00 0.00 74 1011.7
20260506050204 69 244 1.7 1.7 0.00 0.00 0.00 74 1011.9
20260506044655 69 237 1.7 1.7 0.00 0.00 0.00 74 1012.0
20260506044151 69 257 1.7 2.6 0.00 0.00 0.00 74 1012.0
20260506043649 69 174 2.6 2.6 0.00 0.00 0.00 74 1012.1
20260506043147 69 222 0.0 0.9 0.00 0.00 0.00 74 1012.1
20260506042646 69 240 0.9 0.9 0.00 0.00 0.00 74 1012.1
20260506042143 69 199 4.3 7.0 0.00 0.00 0.00 74 1012.0
20260506041641 69 133 3.5 4.3 0.00 0.00 0.00 73 1012.2
20260506041138 69 172 1.7 1.7 0.00 0.00 0.00 74 1012.0